St. Augustine, FL

9:29 AM EDT on May 30, 2017 (GMT -0400)
Saint Augustine

Weather History for KSGJ - October, 2013

Change the Weather History Date:

Thursday, October 10, 2013

  Actual Average Record
Temperature  
Mean Temperature 70 °F -  
Max Temperature 77 °F 78 °F 88 °F (1981)
Min Temperature 64 °F 66 °F 53 °F (2000)
Cooling Degree Days 6    
Growing Degree Days 20 (Base 50)    
Moisture  
Dew Point 64 °F    
Average Humidity 81    
Maximum Humidity 97    
Minimum Humidity 62    
Precipitation  
Precipitation 0.00 in - - ()
Sea Level Pressure  
Sea Level Pressure 30.05 in    
Wind  
Wind Speed 7 mph (NNW)    
Max Wind Speed 13 mph    
Max Gust Speed -    
Visibility 10 miles    
Events      
Averages and records for this station are not official NWS values.
T = Trace of Precipitation, MM = Missing Value Source: NWS Daily Summary

Daily Weather History Graph

Daily Weather History Graph

Search for Another Location

Airport or City:

Trip Planner

Search our weather history database for the weather conditions in past years. The results will help you decide how hot, cold, wet, or windy it might be!

Date:

Astronomy

Oct. 10, 2013 Rise Set
Actual Time 7:24 AM EDT 6:59 PM EDT
Civil Twilight 7:00 AM EDT 7:23 PM EDT
Nautical Twilight 6:32 AM EDT 7:51 PM EDT
Astronomical Twilight 6:04 AM EDT 8:19 PM EDT
Moon 12:58 PM EDT (10/10) 11:51 PM EDT (10/10)
Length of Visible Light 12h 23m
Length of Day
11h 35m
Waxing Crescent, 35% of the Moon is Illuminated
Oct 10
Waxing Crescent
Oct 11
First Quarter
Oct 18
Full
Oct 26
Last Quarter
Nov 3
New

Hourly Weather History & Observations

Time (EDT) Temp. Dew Point Humidity Pressure Visibility Wind Dir Wind Speed Gust Speed Precip Events Conditions
12:58 AM 64.9 °F 63.0 °F 93% 30.06 in 10.0 mi West 6.9 mph - N/A   Partly Cloudy
1:58 AM 64.9 °F 63.0 °F 93% 30.05 in 10.0 mi WNW 8.1 mph - N/A   Clear
2:58 AM 64.0 °F 62.1 °F 93% 30.05 in 10.0 mi West 5.8 mph - N/A   Clear
3:58 AM 64.0 °F 62.1 °F 93% 30.04 in 10.0 mi WNW 5.8 mph - N/A   Partly Cloudy
4:58 AM 64.0 °F 62.1 °F 93% 30.04 in 10.0 mi WNW 4.6 mph - N/A   Partly Cloudy
5:58 AM 64.0 °F 62.1 °F 93% 30.05 in 10.0 mi NW 6.9 mph - N/A   Clear
6:58 AM 64.0 °F 63.0 °F 96% 30.06 in 10.0 mi NW 6.9 mph - N/A   Clear
7:58 AM 64.9 °F 64.0 °F 97% 30.06 in 10.0 mi NW 6.9 mph - N/A   Clear
8:58 AM 69.1 °F 66.0 °F 90% 30.08 in 10.0 mi NW 6.9 mph - N/A   Clear
9:58 AM 73.0 °F 66.9 °F 81% 30.09 in 10.0 mi North 9.2 mph - N/A   Clear
10:58 AM 75.9 °F 64.0 °F 67% 30.09 in 10.0 mi North 10.4 mph - N/A   Clear
11:33 AM 75.2 °F 66.2 °F 73% 30.09 in 10.0 mi NNE 12.7 mph - N/A   Mostly Cloudy
11:41 AM 75.2 °F 66.2 °F 73% 30.09 in 10.0 mi NNE 11.5 mph - N/A   Scattered Clouds
11:58 AM 75.0 °F 66.0 °F 73% 30.09 in 10.0 mi NNE 10.4 mph - N/A   Scattered Clouds
12:58 PM 75.9 °F 64.0 °F 67% 30.08 in 10.0 mi NE 11.5 mph - N/A   Clear
1:58 PM 77.0 °F 64.0 °F 64% 30.05 in 10.0 mi NNE 9.2 mph - N/A   Clear
2:58 PM 75.9 °F 63.0 °F 64% 30.03 in 10.0 mi NE 9.2 mph - N/A   Clear
3:58 PM 77.0 °F 63.0 °F 62% 30.02 in 10.0 mi NE 8.1 mph - N/A   Clear
4:58 PM 75.9 °F 63.0 °F 64% 30.02 in 10.0 mi ENE 5.8 mph - N/A   Clear
5:58 PM 75.9 °F 63.0 °F 64% 30.01 in 10.0 mi East 3.5 mph - N/A   Clear
6:58 PM 73.9 °F 64.0 °F 71% 30.01 in 10.0 mi SSE 3.5 mph - N/A   Clear
7:58 PM 72.0 °F 64.0 °F 76% 30.01 in 10.0 mi Calm Calm - N/A   Clear
8:58 PM 69.1 °F 64.9 °F 87% 30.03 in 10.0 mi Calm Calm - N/A   Clear
9:58 PM 66.9 °F 64.0 °F 90% 30.04 in 10.0 mi Calm Calm - N/A   Clear
10:58 PM 66.9 °F 64.0 °F 90% 30.04 in 10.0 mi SW 3.5 mph - N/A   Clear
11:58 PM 66.9 °F 63.0 °F 87% 30.02 in 10.0 mi Calm Calm - N/A   Clear